OSCAR 7 (AO-7) 1 07530U 74089B 26119.29576108 -.00000021 00000+0 15651-3 0 9994 2 07530 101.9928 132.0289 0011981 223.1206 148.8189 12.53697352354394 PHASE 3B (AO-10) 1 14129U 83058B 26118.35311208 -.00000137 00000+0 00000+0 0 9992 2 14129 25.8946 227.8674 6028461 101.9264 327.7175 2.05873308294462 UOSAT 2 (UO-11) 1 14781U 84021B 26119.15449072 .00001317 00000+0 13998-3 0 9991 2 14781 97.8023 85.2928 0007472 358.7255 1.3943 14.90663845249822 LUSAT (LO-19) 1 20442U 90005G 26119.27388147 .00000144 00000+0 68195-4 0 9996 2 20442 98.8883 139.7244 0011402 355.4633 4.6446 14.34107421895389 EYESAT A (AO-27) 1 22825U 93061C 26119.19275403 .00000109 00000+0 58432-4 0 9993 2 22825 98.6902 186.6179 0007407 240.0084 120.0364 14.30928592699990 ITAMSAT (IO-26) 1 22826U 93061D 26119.18674439 .00000105 00000+0 56538-4 0 9996 2 22826 98.6849 186.5243 0008123 221.8058 138.2505 14.31354103700304 RADIO ROSTO (RS15) 1 23439U 94085A 26119.24829791 -.00000045 00000+0 -80239-4 0 9994 2 23439 64.8209 22.3640 0154556 12.7875 347.6902 11.27583798290389 JAS-2 (FO-29) 1 24278U 96046B 26119.21735058 .00000012 00000+0 49931-4 0 9990 2 24278 98.5298 334.7812 0349138 223.3981 133.9183 13.53271838466544 TECHSAT 1B (GO-32) 1 25397U 98043D 26119.24534146 .00000075 00000+0 52601-4 0 9997 2 25397 99.0062 110.7735 0001666 38.0812 322.0483 14.24418511444363 ISS (ZARYA) 1 25544U 98067A 26119.16770407 .00006851 00000+0 13230-3 0 9992 2 25544 51.6320 182.7324 0007095 3.0267 357.0763 15.49015163564152 PCSAT (NO-44) 1 26931U 01043C 26119.12751589 .00000154 00000+0 88316-4 0 9995 2 26931 67.0527 11.1618 0006480 264.0327 96.0037 14.31936536283425 SAUDISAT 1C (SO-50) 1 27607U 02058C 26118.79300162 .00001269 00000+0 16677-3 0 9990 2 27607 64.5516 281.7957 0075602 271.4499 87.7947 14.82935654257133 CUTE-1 (CO-55) 1 27844U 03031E 26119.00354889 .00000324 00000+0 15933-3 0 9990 2 27844 98.6754 128.1790 0008956 335.4129 24.6622 14.24304328184678 CUBESAT XI-IV (CO-57) 1 27848U 03031J 26118.96741483 .00000271 00000+0 13831-3 0 9994 2 27848 98.6786 127.8957 0009248 354.7046 5.4033 14.23593671184375 MOZHAETS 4 (RS22) 1 27939U 03042A 26119.32867105 .00000804 00000+0 13233-3 0 9996 2 27939 98.3467 302.3106 0012509 66.0656 56.7746 14.73377649208354 CUBESAT XI-V 1 28895U 05043F 26118.39179343 .00001607 00000+0 26109-3 0 9995 2 28895 98.2926 272.9883 0014109 9.0083 351.1375 14.72497418 94425 CUTE-1.7+APD II (CO-65) 1 32785U 08021C 26119.25200186 .00004433 00000+0 28459-3 0 9993 2 32785 97.8249 99.6795 0008695 183.4294 176.6876 15.08979147977814 SEEDS II (CO-66) 1 32791U 08021J 26119.21000459 .00016937 00000+0 56642-3 0 9994 2 32791 97.7522 114.8375 0005050 110.3194 249.8589 15.31054269979796 YUBILEINY (RS30) 1 32953U 08025A 26119.24826490 .00000038 00000+0 19777-3 0 9995 2 32953 82.5079 25.8780 0020613 58.8911 301.4188 12.43177757813617 KKS-1 (KISEKI) 1 33499U 09002H 26119.20648767 .00001507 00000+0 19217-3 0 9993 2 33499 98.1194 40.8778 0009362 88.9655 271.2631 14.82993671928930 SWISSCUBE 1 35932U 09051B 26119.24857718 .00001149 00000+0 23702-3 0 9999 2 35932 98.4066 26.2814 0007198 16.2015 343.9414 14.62383688882005 BEESAT-1 1 35933U 09051C 26119.23280173 .00000947 00000+0 20030-3 0 9990 2 35933 98.3995 26.0025 0005975 31.5320 328.6237 14.61637536882037 ITUPSAT1 1 35935U 09051E 26119.18095078 .00000875 00000+0 19095-3 0 9993 2 35935 98.4081 25.1932 0008336 38.5411 321.6383 14.60364055881581 XIWANG-1 (HOPE-1) 1 36122U 09072B 26119.22445263 .00000416 00000+0 12059-2 0 9998 2 36122 100.3986 73.8467 0007496 351.0470 9.0508 13.16439717786560 O/OREOS (USA 219) 1 37224U 10062C 26119.23778274 .00002107 00000+0 20542-3 0 9991 2 37224 71.9713 191.1982 0013968 167.6979 192.4536 14.93543683109333 JUGNU 1 37839U 11058B 26118.76698919 .00000478 00000+0 10965-3 0 9990 2 37839 19.9607 248.6716 0018445 250.9026 260.2548 14.13761682752026 SRMSAT 1 37841U 11058D 26119.32246927 .00000425 00000+0 87047-4 0 9992 2 37841 19.9736 355.2378 0011735 26.7876 133.2649 14.11564008750905 STRAND-1 1 39090U 13009E 26119.04180033 .00000316 00000+0 12070-3 0 9994 2 39090 98.3914 300.4883 0009077 25.7576 334.4061 14.37133417690008 ZACUBE-1 (TSHEPISOSAT) 1 39417U 13066B 26119.14277250 .00005450 00000+0 42559-3 0 9998 2 39417 97.8122 81.2158 0043850 57.4022 303.1423 15.00780129673375 GOMX-1 1 39430U 13066Q 26119.29097478 .00001844 00000+0 28387-3 0 9997 2 39430 97.6524 322.8339 0127624 234.2424 124.6862 14.69271901662730 CUBEBUG-2 (LO-74) 1 39440U 13066AA 26119.29066391 .00002741 00000+0 25841-3 0 9997 2 39440 97.8879 68.0875 0057590 187.9295 172.1020 14.93412917669691 FUNCUBE-1 (AO-73) 1 39444U 13066AE 26119.19078872 .00008906 00000+0 56136-3 0 9997 2 39444 97.8246 89.6477 0037204 13.5570 346.6649 15.08803446672271 UWE-3 1 39446U 13066AG 26118.81357383 .00004372 00000+0 37911-3 0 9997 2 39446 97.8659 74.5832 0050873 123.3202 237.2906 14.96609909670192 UNISAT-6 1 40012U 14033C 26119.18145161 .00003646 00000+0 39674-3 0 9994 2 40012 97.7813 272.7830 0044259 228.7035 131.0368 14.87952088638870 DUCHIFAT-1 1 40021U 14033M 26119.08216829 .00069021 00000+0 97271-3 0 9999 2 40021 98.0530 171.6961 0004534 223.8334 136.2560 15.56384900648097 QB50P1 1 40025U 14033R 26119.30087242 .00008796 00000+0 44217-3 0 9997 2 40025 98.0980 127.0463 0009827 42.9569 317.2428 15.17479576645612 LILACSAT-2 1 40908U 15049K 26119.22713487 .00015059 00000+0 27167-3 0 9998 2 40908 97.4722 154.2514 0008722 77.8928 282.3300 15.49816488588166 FOX-1A (AO-85) 1 40967U 15058D 26119.24905022 .00003747 00000+0 34072-3 0 9997 2 40967 64.7754 71.0307 0128603 75.7696 285.7661 14.90664483106275 CAS-2T & KS-1Q 1 41847U 16066G 26119.20126901 .00000658 00000+0 10282-3 0 9997 2 41847 98.3830 195.4901 0340930 278.2317 78.0350 14.44571202497727 RADFXSAT (FOX-1B) 1 43017U 17073E 26119.11147528 .00010049 00000+0 44347-3 0 9999 2 43017 97.4781 347.3504 0154033 137.5941 223.7315 15.11814540457970 DIWATA-2B 1 43678U 18084H 26119.28371366 .00002262 00000+0 18589-3 0 9999 2 43678 98.1071 313.4089 0012986 338.5733 21.4944 15.00206324408887 ES'HAIL 2 1 43700U 18090A 26119.27985030 .00000142 00000+0 00000+0 0 9990 2 43700 0.0136 254.7841 0001596 175.0281 274.0032 1.00276305 27182 FOX-1CLIFF (AO-95) 1 43770U 18099N 26119.16530301 .00010609 00000+0 41926-3 0 9996 2 43770 97.4423 179.6243 0009911 152.7853 207.3906 15.25633116405745 ITASAT 1 43786U 18099AE 26119.13367586 .00006220 00000+0 30487-3 0 9997 2 43786 97.4073 171.6374 0013575 157.3481 202.8355 15.18411748405463 JY1SAT (JO-97) 1 43803U 18099AX 26119.13539994 .00017149 00000+0 55509-3 0 9995 2 43803 97.4171 181.8507 0007311 90.7072 269.5007 15.32082252406117 UWE-4 1 43880U 18111E 26119.23771178 .00026372 00000+0 59505-3 0 9996 2 43880 97.5861 45.4921 0010153 129.5207 230.6939 15.43153573403222 TIANYAN 01 1 44881U 19093C 26119.24165626 .00001382 00000+0 16238-3 0 9994 2 44881 97.7549 192.6655 0012065 246.0774 113.9178 14.86440856344148 RS-44 & BREEZE-KM R/B 1 44909U 19096E 26119.21999845 .00000015 00000+0 24384-4 0 9997 2 44909 82.5260 12.2455 0216374 258.8497 98.8210 12.79747963296084 SALSAT 1 46495U 20068K 26119.27249140 .00007841 00000+0 28027-3 0 9993 2 46495 97.8854 119.3884 0011637 111.2611 248.9872 15.29062672307882 XW-3 (CAS-9) 1 50466U 21131B 26119.32149848 .00000433 00000+0 14766-3 0 9993 2 50466 98.4952 211.9833 0003069 234.4101 125.6802 14.41309161228073 GREENCUBE (IO-117) 1 53109U 22080E 26116.97992185 -.00000003 00000+0 00000+0 0 9998 2 53109 70.1458 316.0629 0008819 301.5581 58.4217 6.42583360 88775 UMKA 1 (RS40S) 1 57172U 23091G 26119.26376823 .00005461 00000+0 25448-3 0 9994 2 57172 97.5091 178.1606 0011244 292.3828 67.6215 15.20258341156572 CUBESX-HSE 3 (RS42S) 1 57178U 23091N 26119.27167204 .00011674 00000+0 40420-3 0 9992 2 57178 97.5127 184.2809 0009449 262.6977 97.3189 15.29981445156948 MONITOR-3 (RS58S) 1 57180U 23091Q 26119.25790545 .00009763 00000+0 37219-3 0 9991 2 57180 97.5121 182.3744 0010243 270.8399 89.1666 15.26858033156824 MONITOR-4 (RS57S) 1 57182U 23091S 26119.24001845 .00009574 00000+0 36400-3 0 9991 2 57182 97.5115 182.3243 0010198 271.3834 88.6236 15.26954643156823 MONITOR-2 (RS39S) 1 57184U 23091U 26119.29129356 .00004910 00000+0 24144-3 0 9997 2 57184 97.5113 177.8973 0009646 284.3092 75.7071 15.18454419156537 SVYATOBOR 1 (RS60S) 1 57187U 23091X 26119.27880604 .00007996 00000+0 31565-3 0 9990 2 57187 97.5126 182.8492 0007961 261.2715 98.7621 15.25776720156851 VIZARD-METEO (RS38S) 1 57189U 23091Z 26119.26295120 .00014996 00000+0 45091-3 0 9991 2 57189 97.5123 187.8216 0006383 235.1046 124.9598 15.34473198157188 POLYTECH-UNIVERSE 3 (R*) 1 57191U 23091AB 26119.25899070 .00004636 00000+0 22659-3 0 9992 2 57191 97.5089 177.3706 0014086 302.5575 57.4298 15.18650168156525 UTMN 2 (RS27S) 1 57203U 23091AP 26119.25120670 .00011354 00000+0 38310-3 0 9995 2 57203 97.5121 185.8336 0006890 245.5411 114.5111 15.30847242157051 KUZGTU 1 (RS47S) 1 57217U 23091AV 26119.28681283 .00009782 00000+0 35232-3 0 9997 2 57217 97.5101 183.3038 0009539 266.7871 93.2278 15.28739919156902 SONATE-2 1 59112U 24043Q 26119.16292644 .00032751 00000+0 48429-3 0 9991 2 59112 97.5476 266.7065 0006566 27.6791 332.4811 15.55230691120265 MESAT1 1 60209U 24125G 26119.05443444 .00049008 00000+0 64362-3 0 9992 2 60209 97.2361 335.5868 0011410 47.6484 312.5737 15.58300770101900 OOV-CUBE (TUBSAT-30) 1 60240U 24128F 26119.27823522 .00002522 00000+0 19966-3 0 9993 2 60240 61.9967 36.0831 0050237 123.0105 237.5829 15.02525039 98760 COLIBRI-S (RS67S) 1 61746U 24199M 26119.27996199 .00019281 00000+0 40006-3 0 9993 2 61746 97.3072 352.7471 0010835 98.2627 261.9852 15.45686691129853 HORS 3 (RS81S) 1 61753U 24199U 26119.25678440 .00030627 00000+0 51400-3 0 9992 2 61753 97.3054 354.2301 0009276 101.9394 258.2899 15.51705240129961 HORS 4 (RS82S) 1 61754U 24199V 26119.28343264 .00037551 00000+0 55134-3 0 9990 2 61754 97.3011 355.1824 0008422 98.2825 261.9385 15.55379273130032 HORIZON (RS59S) 1 61757U 24199Y 26118.97656424 .00427671 73227-4 12302-2 0 9994 2 61757 97.2923 0.7153 0004906 125.6382 234.5351 15.93077331130367 ARCTICSAT 1 (RS74S) 1 61762U 24199AD 26118.92156874 .00171092 00000+0 94918-3 0 9990 2 61762 97.2965 359.5903 0005982 96.2736 263.9212 15.79035015130288 SIT-2086 1 61764U 24199AF 26119.30582538 .00021012 00000+0 37427-3 0 9993 2 61764 97.3033 354.9159 0008644 89.1368 271.0874 15.50102486126857 HYPERVIEW 1G (RS66S) 1 61772U 24199AP 26119.24537985 .00074297 00000+0 73422-3 0 9999 2 61772 97.2980 356.8868 0009200 99.1214 261.1087 15.65603447126994 ALTAIR (RS65S) 1 61779U 24199AW 26119.26946428 .00010314 00000+0 29476-3 0 9994 2 61779 97.3102 348.9603 0014708 118.7463 241.5261 15.36073665129608 ASRTU-1 (AO-123) 1 61781U 24199AY 26119.28298433 .00007113 00000+0 21141-3 0 9999 2 61781 97.3075 348.4035 0015639 121.0547 239.2234 15.34945218126429 TUSUR GO (RS78S) 1 61782U 24199AZ 26119.28583560 .00771520 28331-3 14292-2 0 9997 2 61782 97.2865 0.2214 0005255 152.4835 207.6723 16.01166260127227 SAMSAT-IONOSPHERE (RS7*) 1 61784U 24199BB 26119.29635054 .00035789 00000+0 56095-3 0 9993 2 61784 97.3030 354.1708 0011547 102.1589 258.0959 15.53553846129962 RTU MIREA 1 (RS51S) 1 61785U 24199BC 26119.28567680 .00042512 00000+0 60597-3 0 9996 2 61785 97.3024 354.7753 0011483 100.3012 259.9538 15.56123805126851 TEVEL2-4 1 63213U 25052D 26119.24988739 .00016961 00000+0 53573-3 0 9996 2 63213 97.3966 15.6122 0000510 336.1476 23.9742 15.32893858 62614 TEVEL2-5 1 63214U 25052E 26119.20000557 .00016012 00000+0 50832-3 0 9998 2 63214 97.3960 15.5233 0000537 323.0153 37.1052 15.32744331 62608 TEVEL2-6 1 63215U 25052F 26119.21114650 .00016397 00000+0 52111-3 0 9998 2 63215 97.3963 15.5191 0000643 328.0693 32.0510 15.32705524 62601 TEVEL2-1 1 63217U 25052H 26119.22416866 .00015783 00000+0 50920-3 0 9999 2 63217 97.3937 15.2123 0001250 352.3084 7.8138 15.32230743 62595 TEVEL2-3 1 63218U 25052J 26119.22040738 .00015809 00000+0 50930-3 0 9991 2 63218 97.3941 15.2250 0001282 352.2355 7.8867 15.32276239 62596 TEVEL2-2 1 63219U 25052K 26119.22469927 .00015625 00000+0 50406-3 0 9991 2 63219 97.3938 15.2144 0001257 353.3923 6.7302 15.32235901 62593 TEVEL2-9 1 63237U 25052AD 26119.14113243 .00014707 00000+0 50238-3 0 9992 2 63237 97.4002 14.6067 0004941 334.3423 25.7572 15.30390061 62520 TEVEL2-7 1 63238U 25052AE 26119.23865429 .00014519 00000+0 49988-3 0 9994 2 63238 97.4004 14.6393 0005045 333.5895 26.5088 15.30136484 62534 TEVEL2-8 1 63239U 25052AF 26119.24635343 .00014814 00000+0 51025-3 0 9999 2 63239 97.4003 14.6255 0005030 335.0851 25.0146 15.30117693 62534 HADES-ICM 1 63492U 25052BN 26119.22310369 .00392382 00000+0 20945-2 0 9991 2 63492 97.3833 22.2281 0004051 149.9618 210.1882 15.79325908 63059 INNOSAT 16 (RS92S7) 1 64878U 25155C 26119.25517703 .00006522 00000+0 26465-3 0 9990 2 64878 97.4530 86.5706 0010681 9.6082 350.5358 15.24902375 73216 GEOSCAN 6 (RS92S6) 1 64879U 25155D 26119.25053218 .00010615 00000+0 37697-3 0 9994 2 64879 97.4525 87.6595 0007739 7.7370 352.3988 15.29190496 73282 GEOSCAN 1 (RS92S1) 1 64880U 25155E 26119.27074697 .00011284 00000+0 39424-3 0 9995 2 64880 97.4521 87.7883 0007655 8.0921 352.0441 15.29708857 73292 239ALFEROV (RS61S) 1 64881U 25155F 26119.23989985 .00014127 00000+0 46500-3 0 9999 2 64881 97.4524 88.1658 0007211 9.8387 350.2994 15.31588208 73319 GEOSCAN 2 (RS92S2) 1 64890U 25155Q 26119.27328353 .00010788 00000+0 37383-3 0 9997 2 64890 97.4519 87.9237 0006512 356.4132 3.7061 15.29995352 73308 GEOSCAN 5 (RS92S5) 1 64891U 25155R 26119.23914018 .00013977 00000+0 45553-3 0 9994 2 64891 97.4516 88.2837 0006443 19.3469 340.8016 15.31914121 73322 GEOSCAN 4 (RS92S4) 1 64892U 25155S 26119.29307723 .00014088 00000+0 45732-3 0 9993 2 64892 97.4519 88.3737 0006454 19.4279 340.7207 15.32042578 73339 GEOSCAN 3 (RS92S3) 1 64893U 25155T 26119.28669309 .00017637 00000+0 54256-3 0 9998 2 64893 97.4508 88.6679 0006271 22.9152 337.2369 15.33711225 73357 INNOSAT 3 (RS92S0) 1 64894U 25155U 26119.25612660 .00034239 00000+0 84477-3 0 9999 2 64894 97.4469 89.7193 0005557 33.0363 327.1230 15.40443306 73423 KNACKSAT-2 1 67683U 98067XZ 26118.44026888 .00037603 00000+0 53648-3 0 9995 2 67683 51.6295 183.8755 0012529 13.5417 346.5908 15.55824780 12527